Tracking 29065 objects as of 22-Jul-2024
HD Live streaming from Space Station
objects crossing your sky now

COSMOS 1275 DEB

Track COSMOS 1275 DEB now!
10-day predictions


NORAD ID: 13483
Int'l Code: 1981-053GF
Perigee: 835.6 km
Apogee: 848.6 km
Inclination: 82.9 °
Period: 101.6 minutes
Semi major axis: 7213 km
RCS: 0.0105 m2 (small)
Launch date: June 4, 1981
Source: Commonwealth of Independent States (former USSR) (CIS)
Launch site: PLESETSK MISSILE AND SPACE COMPLEX (PKMTR)

Note: This is SATELLITE DEBRIS
Your satellite tracking list
Your tracking list is empty




NASA's NSSDC Master Catalog

Two Line Element Set (TLE):
1 13483U 81053GD  24204.43194566  .00004060  00000-0  20062-2 0  9998
2 13483  82.9236 282.6719 0008962  34.7155  87.4609 14.17167893148774
Source of the keplerian elements: AFSPC